Location: Béaulencourt
(50.0796°N, 2.8795°E)
Time: 14:30:02
(UTC+00:00)

Cosmos 1805 Rocket - Visible Passes

Search period start: 11 April 2026 00:00
Search period end: 21 April 2026 00:00
Orbit: 600 x 621 km, 82.5° (Epoch: 11 April)

Date Brightness Start Highest point End Pass type
(mag) Time Alt. Az. Time Alt. Az. Time Alt. Az.
12 Apr 6.0 19:08:46 10° SW 19:12:38 30° WNW 19:16:33 10° N visible
13 Apr 6.9 03:34:21 10° NNE 03:36:59 15° ENE 03:39:34 10° E visible
13 Apr 6.8 19:24:19 10° WSW 19:27:33 20° WNW 19:30:47 10° NNW visible
14 Apr 6.4 03:48:22 10° NNE 03:51:56 23° ENE 03:55:26 10° ESE visible
14 Apr 7.2 19:40:28 10° W 19:42:31 13° WNW 19:44:35 10° NNW visible
15 Apr 5.5 04:02:42 10° N 04:06:48 35° ENE 04:10:51 10° SE visible
16 Apr 4.4 04:17:12 10° N 04:21:35 57° ENE 04:25:54 10° SSE visible
17 Apr 6.9 02:55:50 10° NNE 02:57:54 13° ENE 02:59:58 10° E visible
18 Apr 6.5 03:09:38 10° NNE 03:12:53 20° ENE 03:16:07 10° ESE visible
19 Apr 5.7 03:23:52 10° N 03:27:47 30° ENE 03:31:39 10° SE visible
20 Apr 4.7 03:38:19 10° N 03:42:36 47° ENE 03:46:50 10° SSE visible
